This is the latest recevied weather packets stored in our database for station/object N7WSS. If no packets are shown the sender has not sent any weather packets the latest 10 day(s).
| Time | Temp. | Humidity | Pressure | Rain* | Wind** | Luminosity | Snow |
|---|---|---|---|---|---|---|---|
| 1788138077 | 34.44° C | 35% | 1010.5 hPa | 0 mm | - | - | - |
| 1788137777 | 34.44° C | 35% | 1010.3 hPa | 0 mm | - | - | - |
| 1788137472 | 34.44° C | 34% | 1010.6 hPa | 0 mm | - | - | - |
| 1788137168 | 35° C | 34% | 1010.3 hPa | 0 mm | - | - | - |
| 1788136863 | 35.56° C | 33% | 1010.2 hPa | 0 mm | - | - | - |
| 1788136560 | 36.11° C | 33% | 1010.2 hPa | 0 mm | - | - | - |
| 1788136255 | 36.11° C | 33% | 1010.3 hPa | 0 mm | - | - | - |
| 1788135953 | 36.11° C | 33% | 1010.5 hPa | 0 mm | - | - | - |
| 1788135649 | 36.67° C | 32% | 1010.3 hPa | 0 mm | - | - | - |
| 1788135344 | 37.22° C | 32% | 1010.3 hPa | 0 mm | - | - | - |
| 1788135041 | 37.22° C | 32% | 1010.4 hPa | 0 mm | - | - | - |
| 1788134737 | 36.67° C | 31% | 1010.2 hPa | 0 mm | - | - | - |
| 1788134436 | 36.67° C | 31% | 1010.4 hPa | 0 mm | - | - | - |
| 1788134135 | 36.11° C | 31% | 1010.5 hPa | 0 mm | - | - | - |
| 1788133830 | 37.22° C | 31% | 1010.4 hPa | 0 mm | - | - | - |
| 1788133525 | 37.22° C | 30% | 1010.4 hPa | 0 mm | - | - | - |
| 1788133220 | 36.67° C | 31% | 1010.4 hPa | 0 mm | - | - | - |
| 1788132916 | 37.22° C | 31% | 1010.5 hPa | 0 mm | - | - | - |
| 1788132612 | 37.78° C | 29% | 1010.5 hPa | 0 mm | - | - | - |
| 1788132308 | 37.22° C | 30% | 1010.6 hPa | 0 mm | - | - | - |
| 1788132003 | 37.22° C | 30% | 1010.4 hPa | 0 mm | - | - | - |
| 1788131699 | 37.78° C | 29% | 1010.8 hPa | 0 mm | - | - | - |
| 1788131398 | 37.78° C | 30% | 1010.7 hPa | 0 mm | - | - | - |
| 1788131094 | 38.33° C | 28% | 1010.8 hPa | 0 mm | - | - | - |
| 1788130792 | 37.22° C | 29% | 1010.8 hPa | 0 mm | - | - | - |
* Rain latest hour (hover to see other rain measurements)
** Current wind speed in m/s (hover to see current wind gust speed)